Regional Weather Roundup
Issued by NWS Bismarck, ND

Home | Current Version | Previous Version | Text Only | Print | Product List | Glossary On
Versions: 1 2 3 4 5 6 7 8 9 10 11 12 13 14 15 16 17 18 19 20 21 22 23 24 25 26 27 28 29 30 31 32 33 34 35 36 37 38 39 40 41 42 43 44 45 46 47 48 49 50
000
ASUS43 KBIS 211859
RWRBIS

NWR BROADCAST TEXT
NATIONAL WEATHER SERVICE BISMARCK ND
200 PM CDT SUN SEP 21 2014

NOTE: "FAIR" INDICATES FEW OR NO CLOUDS BELOW 12,000 FEET WITH NO
SIGNIFICANT WEATHER AND/OR OBSTRUCTIONS TO VISIBILITY.


CITY           SKY/WX    TMP DP  RH WIND       PRES   REMARKS
WILLISTON      SUNNY     71  39  31 SW8       30.27F
MINOT          NOT AVBL
MINOT AFB      NOT AVBL
BISMARCK       SUNNY     72  46  39 W6        30.28F
DICKINSON      NOT AVBL
GARRISON         N/A     69  44  40 W8        30.26F
HETTINGER ARPT SUNNY     68  38  33 SW5       30.31F
JAMESTOWN      NOT AVBL
CARRINGTON     FAIR      64  46  52 NW9G17    30.26F
CROSBY         FAIR      72  36  26 SW8       30.26F
HARVEY         FAIR      66  46  48 N9        30.25F
HAZEN          FAIR      68  41  37 NW9       30.27F
LINTON         FAIR      70  43  37 NW7       30.27F
MANDAN         FAIR      68  43  40 N8        30.28F
OAKES            N/A     66  50  55 N13       30.25F
RUGBY          FAIR      66  46  48 NW12      30.24F
WATFORD CITY   FAIR      70  36  28 W3        30.25F
$$

CITY           SKY/WX    TMP DP  RH WIND       PRES   REMARKS
GRAND FORKS    PTSUNNY   63  50  62 NW8       30.22F
GRAND FORKS AF NOT AVBL
DEVILS LAKE    PTSUNNY   64  46  52 NW10      30.22F
FARGO          CLOUDY    62  51  67 N7        30.23S
CAVALIER       MOCLDY    63  52  67 N8        30.22F
GRAFTON        MOCLDY    61  50  67 N6        30.22F
GWINNER        PTCLDY    66  48  52 NW9       30.25F
LANGDON        MOCLDY    63  48  59 NW8       30.22F
ROLLA          FAIR      64  45  48 W6        30.24F
$$

CITY           SKY/WX    TMP DP  RH WIND       PRES   REMARKS
ABERDEEN       PTSUNNY   67  47  48 N8        30.26F
MOBRIDGE       SUNNY     70  45  40 MISG      30.26F
RAPID CITY     SUNNY     71  38  29 VRB5      30.33F
GLASGOW        SUNNY     70  36  28 S6        30.24F
SIDNEY         SUNNY     72  41  33 S6        30.28F
WOLF POINT     SUNNY     72  40  31 CALM      30.25F
MILES CITY     SUNNY     74  38  27 S9        30.26F
BAKER          SUNNY     71  33  24 VRB3      30.30F
$$

CITY           SKY/WX    TMP DP  RH WIND       PRES   REMARKS
BILLINGS       MOSUNNY   69  45  41 E7        30.25F
GREAT FALLS    SUNNY     69  44  40 E6        30.18F
$$




USA.gov is the U.S. government's official web portal to all federal, state and local government web resources and services.